Dewpoint
10 10 10 9 9 9 9 9 8 8 7 6 5 5 6 6 7 7 7 0 -5 -7 -9 -10 -12 -13 -13 -13 -13 -12 -12 -12 -12 -12 -12 -12 -13 -13 -13 -14 -13 -13 -12
10 10 10 10 9 9 8 7 4 2 -0 -2 -3 -1 -4 -2 2 3 1 -2 -9 -10 -11 -11 -11 -11 -11 -12 -11 -11 -9 -9 -8 -8 -9 -10 -11 -11 -10 -10 -11 -11 -11
10 10 10 10 10 5 3 5 6 -1 -2 0 -3 -3 -8 -9 -10 -7 -7 -8 -6 -11 -11 -11 -11 -10 -10 -10 -10 -8 -7 -7 -7 -7 -8 -9 -10 -9 -8 -7 -7 -8 -9
10 10 10 10 9 5 5 6 7 0 1 -4 -7 -7 -9 -9 -10 -10 -6 -9 -8 -7 -11 -11 -10 -8 -8 -9 -7 -6 -6 -6 -7 -7 -8 -9 -9 -8 -5 -3 -2 -2 -3
10 10 9 9 4 7 8 5 3 1 -2 -3 -4 -6 -8 -10 -11 -10 -11 -11 -11 -11 -11 -11 -9 -8 -7 -8 -5 -5 -5 -6 -7 -7 -8 -8 -8 -7 -3 -3 -2 -1 -0
8 9 9 9 7 8 8 6 4 2 -1 -3 -4 -5 -6 -8 -9 -11 -11 -11 -10 -10 -11 -11 -10 -8 -7 -7 -4 -4 -5 -6 -6 -7 -7 -8 -8 -7 -3 -0 -1 -1 0
8 8 8 8 7 6 7 4 2 1 -0 -0 -2 -1 -4 -4 -6 -9 -9 -10 -9 -9 -9 -9 -9 -7 -7 -7 -4 -4 -4 -5 -5 -6 -6 -7 -7 -7 -2 0 1 3 2
8 9 9 9 8 8 7 6 5 4 3 3 1 -0 -0 -2 -2 -4 -7 -8 -7 -7 -7 -7 -8 -7 -6 -6 -5 -3 -4 -4 -5 -5 -5 -6 -6 -7 2 3 2 2 1
9 9 9 9 9 9 9 8 7 6 6 5 5 3 1 -1 -1 -3 -3 -3 -4 -6 -7 -7 -7 -8 -7 -6 -5 -3 -3 -4 -4 -4 -5 -5 -6 -6 3 3 3 2 2
8 7 7 8 8 8 7 8 8 7 7 7 6 5 4 3 2 1 -1 -1 -1 -1 -2 -4 -5 -5 -7 -7 -7 -3 -2 -3 -4 -3 -3 -4 -5 -5 4 3 4 4 3
7 6 7 7 7 7 5 5 6 7 7 7 7 7 7 6 5 3 3 2 0 -0 0 -0 -1 -2 -4 -5 -6 -6 -3 -3 -3 -3 -3 -4 -4 -3 4 4 3 4 4
8 6 6 7 6 3 2 2 2 2 2 3 5 7 6 6 6 5 4 4 3 4 3 1 1 0 -1 -3 -4 -5 -6 -3 -2 -2 -2 -3 -3 -3 2 3 3 3 3
7 6 6 4 -1 -2 -2 -1 -1 -1 -0 0 2 4 6 6 6 5 6 5 4 5 4 4 2 3 2 1 -1 -3 -5 -3 -2 -2 -1 -2 -3 -3 -3 2 2 3 2
6 5 -1 -3 -5 -8 -10 -11 -11 -9 -8 -6 -2 2 5 6 6 6 6 6 5 5 4 4 3 3 2 2 2 1 -2 -3 -2 -1 -1 -2 -3 -2 -3 2 3 2 2
-2 -7 -17 -25 -27 -28 -29 -30 -31 -31 -28 -23 -15 -7 4 5 5 5 5 4 4 4 4 4 4 4 3 2 3 2 0 -2 -1 -1 -1 -2 -2 -2 -3 -0 2 2 1
-23 -26 -28 -30 -32 -32 -32 -33 -33 -32 -31 -27 -16 -10 -4 -5 -2 2 3 3 4 4 4 4 4 4 4 2 2 2 2 -0 -0 0 -0 -1 -1 -1 -2 -1 1 2 1
-30 -31 -32 -32 -32 -32 -32 -32 -33 -32 -32 -30 -29 -26 -26 -24 -21 -18 -17 -3 1 3 3 -0 2 3 4 4 4 3 1 1 2 1 1 1 -1 -0 -2 -2 1 2 2
-32 -32 -31 -31 -31 -32 -32 -32 -32 -30 -28 -28 -27 -26 -26 -24 -21 -18 -14 -10 -4 -5 -3 1 2 3 2 2 3 3 2 2 2 2 2 2 0 -0 -1 -1 -0 2 2
-30 -30 -30 -30 -30 -31 -31 -31 -29 -28 -27 -26 -26 -24 -23 -22 -21 -17 -8 -2 -1 -2 -2 -3 -5 -3 1 3 2 2 3 2 2 2 1 0 0 0 -0 -1 -1 1 1
-29 -29 -29 -30 -29 -29 -29 -29 -27 -26 -24 -23 -21 -17 -13 -11 -9 -8 -9 -9 -8 -5 -3 0 -0 -1 -2 1 0 1 2 1 1 1 1 -0 0 -0 -1 -3 -3 -1 1
-28 -28 -28 -27 -28 -28 -28 -27 -27 -26 -24 -22 -19 -16 -15 -15 -14 -11 -7 -6 -3 -2 -2 -3 -1 -0 -1 0 1 1 1 1 1 1 -0 0 0 -0 -0 -2 -1 1 1
-26 -26 -26 -26 -27 -27 -27 -26 -25 -25 -25 -21 -19 -21 -23 -19 -10 -6 -4 -3 -2 -2 -2 -1 -2 -1 0 -0 1 1 1 1 0 -0 -0 -0 -0 -0 -2 -1 0 0 -1
-24 -24 -24 -25 -25 -25 -25 -24 -24 -24 -25 -23 -18 -14 -10 -8 -7 -4 -3 -2 -2 -2 -1 -1 -1 -1 -0 -1 0 0 0 -0 -1 -1 -1 -1 -1 -2 -1 -1 -1 -1 -1
-22 -22 -23 -22 -22 -22 -22 -22 -22 -22 -23 -22 -16 -10 -9 -13 -4 -3 -2 -2 -2 -1 -2 -1 -1 -2 -1 0 1 0 -0 -1 -1 -1 -1 -2 -2 -2 -2 -2 -2 -1 -1
-21 -21 -21 -21 -21 -21 -21 -21 -21 -21 -21 -20 -17 -10 -9 -12 -4 -3 -2 -2 -2 -2 -1 -1 -1 -0 -0 -1 -1 -1 -2 -1 -2 -2 -2 -2 -2 -3 -3 -3 -3 -3 -3
-19 -19 -20 -19 -20 -19 -20 -20 -19 -19 -18 -18 -16 -11 -8 -5 -3 -3 -2 -3 -2 -1 -1 -2 -1 -1 -1 -2 -2 -2 -2 -2 -2 -2 -2 -2 -3 -3 -5 -5 -4 -4 -4
Wind_Speed
4 3 2 1 2 1 1 3 3 4 4 5 6 6 6 6 5 6 7 12 11 11 10 9 9 8 9 9 9 9 10 11 13 15 16 16 17 17 18 18 17 18 19
4 4 3 2 1 1 2 3 4 5 6 7 7 8 8 8 8 8 9 12 10 10 9 9 9 9 9 8 8 9 11 13 16 17 18 19 20 20 19 19 19 18 18
4 3 4 3 4 5 5 5 6 8 8 8 8 10 10 10 10 10 10 9 13 11 11 11 11 10 9 9 9 10 13 15 17 18 18 19 20 20 20 20 20 19 19
7 4 4 4 7 6 6 6 6 7 8 9 10 10 11 11 11 11 11 12 12 12 15 12 12 11 10 10 10 12 14 17 18 18 18 19 20 20 20 20 20 20 20
6 4 3 4 6 5 6 7 7 9 9 10 11 13 12 13 12 12 13 14 15 16 15 17 14 13 12 12 12 14 15 17 18 18 18 19 19 20 20 20 21 21 20
6 4 4 4 5 5 6 8 8 9 11 12 13 15 14 14 14 14 15 15 16 17 17 17 18 16 15 15 15 16 17 17 18 19 19 20 19 20 21 21 21 21 19
7 6 5 5 6 6 6 9 10 12 11 14 16 13 16 15 13 14 14 15 16 18 18 19 19 18 20 19 18 18 18 18 19 19 20 21 20 19 21 21 20 19 16
6 6 6 6 7 8 9 10 11 11 12 14 13 15 8 13 12 12 11 13 14 15 17 19 20 21 21 22 23 21 20 20 20 20 20 22 21 19 18 19 19 18 15
5 5 5 6 8 10 11 12 12 12 12 10 14 9 8 6 18 14 15 19 19 20 20 21 21 22 23 25 25 25 24 22 22 21 22 23 22 18 16 17 18 13 11
3 5 6 8 10 14 14 12 13 14 15 15 11 13 13 16 9 15 12 16 23 23 23 23 25 26 25 26 28 28 26 26 24 23 23 24 23 20 14 16 14 14 10
7 9 10 12 16 18 16 13 14 15 15 18 18 18 19 20 20 20 28 25 16 21 21 25 26 27 29 30 31 32 30 28 27 26 25 25 23 19 15 16 19 18 17
8 11 13 15 17 15 13 13 15 17 18 20 21 20 20 22 21 21 23 28 29 30 31 27 30 32 32 33 35 35 36 32 30 28 26 25 23 21 19 16 19 18 16
10 10 13 14 12 11 12 13 15 16 17 19 20 21 23 26 27 29 30 34 34 37 34 32 32 40 34 34 36 36 35 35 31 28 27 25 24 22 19 16 16 17 17
8 9 9 8 9 10 12 14 15 16 18 20 20 20 21 24 26 28 32 33 36 39 38 39 35 35 38 38 38 37 37 34 31 29 27 26 25 22 19 19 19 20 17
4 4 5 7 9 10 12 14 15 16 17 19 20 20 20 22 22 25 28 30 33 36 39 35 35 35 36 41 42 40 35 35 31 28 28 25 25 23 21 21 20 20 17
2 3 5 8 10 13 15 17 19 20 21 21 21 22 24 25 25 25 27 30 33 37 48 40 39 35 31 37 37 40 38 33 35 31 29 25 24 24 22 22 21 21 16
3 6 8 11 14 17 19 21 22 23 23 24 24 25 26 26 29 30 31 30 33 34 41 54 45 43 41 40 42 40 40 41 38 35 30 27 25 24 22 23 22 19 17
5 8 11 14 16 18 20 21 22 22 24 24 25 26 26 27 29 31 32 33 30 32 37 47 45 42 45 41 40 41 43 44 36 37 30 29 23 23 20 21 22 20 21
7 10 12 15 17 19 21 22 23 25 26 26 27 28 29 30 32 31 30 31 34 35 35 39 46 44 42 38 41 41 45 43 39 36 31 25 22 21 16 18 18 21 23
9 11 13 15 17 19 21 22 24 25 25 26 27 28 29 30 33 35 37 38 39 38 39 38 43 45 39 43 41 39 41 45 42 35 31 26 24 20 16 19 19 23 24
10 12 14 15 17 18 20 23 25 25 26 27 28 29 31 32 34 36 37 38 34 36 38 41 42 39 41 36 39 36 39 40 39 32 24 24 22 18 17 20 16 24 27
11 13 15 17 18 19 21 23 26 28 29 30 32 34 35 37 40 40 39 36 35 39 38 39 40 40 39 40 40 39 36 35 28 32 24 22 21 16 17 17 16 19 13
13 15 17 19 20 20 21 23 25 28 29 30 31 33 37 39 40 39 38 36 36 33 33 38 42 44 41 41 38 40 37 34 24 20 25 15 10 9 12 17 20 21 18
15 17 18 20 21 21 22 24 26 28 29 30 31 32 35 41 38 36 38 41 42 38 34 35 37 35 35 33 37 33 26 18 16 11 9 9 7 9 14 17 18 20 17
17 18 20 21 23 23 23 24 27 30 32 33 33 32 35 39 38 35 36 40 37 31 32 28 22 20 17 15 15 14 14 13 13 11 10 11 11 15 20 19 15 12 11
18 20 21 23 24 25 25 25 27 31 35 36 36 36 36 36 37 34 36 37 28 26 24 20 21 15 7 4 4 4 5 8 11 11 16 13 15 20 15 15 14 13 13
Wind_Direction
180 177 182 163 183 333 340 332 337 330 324 304 318 307 305 300 297 289 283 295 293 295 300 305 306 308 308 310 318 328 334 338 337 335 332 328 325 321 316 310 304 298 295
190 191 220 217 209 231 303 305 293 306 309 306 294 291 285 283 280 278 276 288 294 291 293 292 294 298 300 303 311 323 332 337 337 335 332 329 326 324 321 318 313 306 301
208 203 238 256 258 282 307 322 320 322 321 314 316 308 305 299 295 292 289 281 289 291 289 288 289 290 287 295 305 317 324 329 332 334 332 328 324 322 322 321 317 312 306
190 206 225 253 259 287 295 307 303 310 314 313 311 304 300 300 298 287 277 283 283 281 291 286 285 284 286 290 299 309 317 324 330 332 332 329 323 319 319 320 319 318 314
202 192 231 250 267 273 288 287 305 309 311 310 313 311 306 299 296 291 289 286 283 282 283 289 286 282 281 284 296 306 314 319 323 326 328 326 321 316 315 316 315 313 311
220 210 244 258 279 296 303 307 310 304 310 309 311 311 305 302 299 293 289 284 283 283 283 278 284 279 276 278 290 300 306 309 315 319 322 321 317 311 312 315 316 317 313
229 231 256 286 300 301 291 295 299 306 309 307 317 315 307 305 303 295 291 286 281 282 281 278 278 279 283 277 284 294 298 301 308 313 316 315 313 306 307 311 317 318 324
235 248 268 283 291 296 302 303 304 307 309 317 318 324 333 315 296 314 306 299 295 287 287 284 280 280 278 278 285 290 295 298 302 306 309 309 306 303 304 307 312 310 315
246 265 282 293 302 301 300 299 302 306 307 302 313 313 333 320 306 312 307 302 300 293 287 284 284 285 282 278 276 283 286 291 294 299 303 303 302 301 301 301 302 306 308
301 287 291 300 303 310 303 300 296 298 300 303 297 305 292 282 296 301 289 296 301 294 289 280 281 282 282 279 275 275 284 290 290 293 295 297 295 293 288 288 276 293 292
278 301 303 299 300 308 301 294 293 294 298 299 298 295 288 291 289 273 289 294 283 288 296 289 282 278 281 284 281 276 279 284 284 285 288 290 289 288 282 279 269 267 279
255 284 285 289 302 304 306 305 304 306 306 302 298 295 292 291 285 277 276 284 286 289 288 277 278 282 283 279 280 280 280 278 278 278 281 282 283 281 279 268 267 264 263
249 268 283 295 301 312 319 319 318 316 312 309 306 300 290 287 287 286 278 277 281 287 286 286 275 287 286 283 281 278 275 274 273 274 277 277 276 275 273 260 258 260 265
265 287 293 303 320 329 331 330 328 325 321 317 313 307 300 294 292 285 283 286 284 283 281 281 279 275 280 284 284 281 274 274 268 270 272 270 273 273 264 252 254 261 252
264 280 303 324 329 327 325 324 324 320 315 311 309 304 299 297 292 290 291 289 285 286 287 288 282 279 274 274 283 282 281 272 264 271 268 270 268 265 257 248 247 251 256
250 305 326 332 334 334 331 328 324 321 318 315 311 305 303 300 296 291 292 291 290 292 290 290 289 289 279 274 269 276 277 265 270 265 267 265 268 259 253 246 244 249 250
346 344 344 342 338 333 331 328 325 322 318 317 315 312 310 310 307 305 303 293 291 288 289 293 295 297 295 290 280 273 265 268 264 264 257 267 260 255 250 246 245 244 244
351 343 338 335 331 326 323 322 321 320 319 318 318 316 315 313 307 306 306 304 297 289 285 288 292 293 292 293 294 277 272 261 255 256 258 262 253 249 245 244 244 240 247
338 334 328 322 321 324 326 325 324 323 321 320 319 317 315 313 310 306 298 293 293 294 292 290 290 288 285 284 288 278 273 257 255 253 253 250 235 233 232 245 245 242 246
328 321 320 323 328 330 330 326 324 322 319 319 319 319 319 318 314 308 303 299 296 292 289 288 287 291 288 288 279 276 258 257 254 241 248 240 239 227 230 251 252 245 239
320 322 327 331 331 330 327 325 323 323 320 318 317 317 317 318 317 316 314 311 303 302 296 288 285 288 287 283 264 271 264 253 243 235 237 235 230 242 247 254 264 236 216
329 331 330 328 327 326 325 324 323 324 322 320 318 318 319 322 322 318 313 308 301 302 298 295 289 285 283 287 269 271 255 236 214 224 219 238 238 239 253 253 227 237 258
331 329 327 326 323 321 321 320 319 321 320 318 317 319 320 319 320 326 322 317 309 302 293 292 287 286 276 286 276 266 240 221 223 209 209 223 234 247 225 223 236 240 242
329 327 324 322 321 322 321 320 317 317 318 318 319 318 316 317 323 328 320 317 311 306 298 296 293 291 296 288 273 238 231 215 203 199 198 175 200 202 206 191 199 205 210
323 322 321 320 320 319 320 318 319 320 320 319 318 319 315 317 324 324 320 325 322 309 303 298 288 272 261 230 256 225 205 202 200 203 201 189 183 178 170 168 186 199 200
323 323 322 322 322 320 321 321 321 321 319 317 317 317 320 323 324 322 319 322 319 315 299 286 287 286 276 228 176 179 199 208 215 210 193 183 181 182 153 171 183 185 184
Height
1567 1568 1568 1568 1568 1568 1568 1568 1567 1567 1567 1565 1565 1565 1564 1564 1564 1563 1562 1560 1559 1559 1558 1558 1557 1556 1555 1553 1552 1551 1550 1550 1548 1547 1545 1543 1542 1540 1539 1537 1536 1534 1533
1567 1567 1568 1567 1568 1567 1567 1567 1566 1565 1565 1564 1563 1563 1562 1562 1562 1561 1560 1558 1558 1557 1557 1556 1555 1554 1553 1552 1551 1550 1549 1548 1546 1545 1543 1541 1539 1538 1536 1535 1533 1531 1530
1567 1567 1567 1567 1567 1566 1566 1566 1566 1564 1564 1563 1562 1562 1561 1560 1560 1559 1558 1558 1556 1556 1555 1555 1554 1553 1552 1551 1550 1549 1547 1546 1544 1542 1541 1539 1537 1535 1533 1532 1530 1528 1526
1565 1566 1567 1567 1566 1566 1565 1565 1565 1564 1563 1562 1561 1560 1559 1559 1558 1557 1557 1556 1555 1554 1553 1553 1552 1552 1551 1550 1549 1547 1546 1544 1542 1540 1538 1536 1534 1532 1531 1529 1528 1525 1523
1564 1565 1565 1565 1564 1564 1564 1563 1563 1562 1562 1561 1559 1558 1557 1556 1556 1555 1554 1554 1553 1552 1552 1549 1550 1550 1549 1548 1547 1546 1544 1542 1540 1538 1536 1534 1532 1529 1528 1526 1524 1522 1521
1562 1563 1564 1564 1564 1564 1564 1563 1562 1561 1560 1559 1558 1556 1554 1553 1553 1552 1552 1551 1550 1549 1548 1547 1546 1546 1546 1545 1544 1543 1541 1539 1538 1535 1533 1532 1530 1527 1525 1523 1521 1519 1517
1562 1562 1563 1563 1563 1563 1563 1562 1562 1561 1560 1558 1556 1555 1553 1551 1550 1549 1548 1547 1547 1546 1545 1544 1543 1542 1541 1541 1541 1540 1538 1537 1534 1532 1529 1528 1527 1525 1523 1521 1519 1517 1515
1560 1561 1562 1562 1562 1562 1561 1561 1560 1560 1559 1558 1557 1555 1552 1552 1549 1548 1547 1546 1545 1544 1543 1542 1541 1540 1539 1538 1536 1536 1535 1534 1532 1530 1527 1525 1523 1522 1520 1519 1517 1515 1513
1560 1560 1561 1561 1560 1560 1560 1559 1559 1558 1558 1558 1557 1558 1555 1553 1549 1548 1547 1546 1544 1543 1541 1539 1537 1537 1536 1534 1533 1531 1530 1529 1527 1525 1523 1522 1520 1518 1517 1516 1514 1512 1511
1558 1559 1560 1560 1559 1558 1558 1557 1556 1556 1556 1555 1556 1555 1554 1552 1549 1544 1544 1541 1540 1539 1538 1536 1534 1532 1530 1528 1527 1526 1524 1523 1522 1520 1518 1516 1515 1513 1513 1512 1511 1510 1509
1556 1557 1558 1558 1557 1555 1554 1553 1553 1553 1552 1552 1551 1551 1550 1548 1547 1545 1538 1536 1538 1534 1532 1531 1530 1527 1525 1522 1521 1520 1519 1518 1516 1515 1513 1512 1511 1510 1510 1509 1508 1506 1506
1553 1554 1555 1554 1554 1552 1551 1550 1550 1549 1549 1548 1547 1546 1545 1545 1543 1542 1537 1532 1529 1528 1527 1526 1522 1521 1520 1517 1514 1513 1511 1511 1510 1508 1506 1505 1505 1504 1503 1503 1503 1503 1503
1550 1551 1551 1551 1550 1550 1549 1547 1546 1546 1545 1543 1542 1541 1540 1539 1538 1536 1533 1528 1524 1521 1519 1518 1516 1513 1512 1510 1507 1506 1505 1503 1503 1502 1501 1500 1499 1499 1498 1498 1498 1499 1499
1549 1549 1549 1548 1548 1547 1546 1545 1544 1543 1542 1540 1538 1537 1536 1534 1532 1530 1527 1524 1516 1512 1510 1508 1508 1505 1502 1502 1500 1498 1497 1496 1496 1494 1494 1493 1493 1493 1493 1494 1495 1495 1495
1547 1548 1548 1547 1546 1545 1543 1542 1541 1539 1538 1536 1534 1532 1530 1529 1527 1525 1522 1521 1517 1505 1499 1501 1500 1501 1497 1493 1493 1490 1490 1489 1489 1488 1487 1486 1487 1486 1487 1488 1490 1491 1490
1546 1546 1545 1544 1544 1542 1541 1539 1537 1535 1533 1532 1530 1527 1525 1522 1521 1519 1518 1515 1513 1508 1493 1496 1493 1492 1491 1486 1485 1484 1480 1481 1481 1479 1480 1479 1478 1481 1481 1483 1483 1484 1485
1544 1543 1543 1541 1540 1538 1537 1535 1534 1532 1530 1527 1526 1523 1521 1518 1514 1512 1509 1507 1504 1502 1493 1478 1482 1482 1481 1479 1475 1474 1475 1471 1471 1472 1471 1471 1471 1473 1473 1477 1478 1479 1481
1540 1541 1540 1539 1538 1536 1535 1532 1531 1528 1525 1523 1521 1518 1515 1512 1509 1506 1503 1499 1496 1494 1490 1477 1474 1473 1470 1468 1467 1465 1467 1463 1462 1462 1464 1463 1464 1466 1467 1470 1473 1473 1476
1538 1537 1538 1537 1536 1534 1531 1528 1525 1523 1520 1517 1514 1511 1509 1505 1502 1498 1496 1493 1489 1485 1482 1476 1463 1464 1461 1459 1458 1455 1454 1453 1453 1454 1454 1455 1457 1459 1459 1465 1465 1466 1471
1536 1536 1535 1534 1532 1530 1527 1524 1521 1519 1516 1514 1510 1507 1504 1500 1496 1491 1487 1484 1480 1477 1475 1470 1462 1456 1454 1450 1448 1448 1443 1442 1446 1446 1446 1449 1450 1452 1454 1459 1460 1459 1462
1533 1533 1532 1530 1528 1526 1523 1519 1517 1514 1510 1507 1505 1502 1499 1496 1491 1486 1479 1474 1472 1468 1464 1461 1455 1450 1447 1443 1438 1439 1437 1434 1436 1437 1441 1444 1445 1448 1450 1452 1453 1455 1458
1531 1530 1529 1527 1525 1523 1520 1517 1512 1509 1507 1503 1498 1495 1490 1486 1482 1477 1473 1468 1465 1460 1453 1451 1445 1443 1440 1438 1435 1432 1429 1427 1425 1428 1435 1439 1442 1444 1447 1449 1452 1453 1456
1527 1526 1525 1524 1522 1520 1517 1513 1509 1504 1500 1497 1492 1488 1483 1480 1476 1470 1462 1458 1455 1451 1448 1443 1437 1432 1426 1426 1426 1422 1421 1420 1420 1424 1429 1434 1439 1441 1444 1445 1447 1450 1454
1524 1522 1520 1519 1517 1516 1513 1508 1504 1499 1495 1491 1487 1484 1478 1472 1469 1465 1459 1451 1445 1440 1437 1433 1430 1425 1421 1416 1416 1415 1417 1418 1421 1423 1428 1432 1436 1440 1442 1443 1446 1449 1452
1520 1518 1516 1515 1512 1511 1508 1504 1499 1494 1489 1485 1481 1477 1474 1467 1463 1458 1453 1445 1438 1433 1428 1424 1421 1419 1416 1413 1414 1414 1415 1417 1421 1424 1427 1431 1436 1438 1442 1443 1446 1449 1451
1517 1515 1513 1511 1508 1505 1503 1501 1496 1490 1483 1478 1475 1470 1468 1464 1456 1452 1447 1442 1437 1432 1425 1422 1420 1417 1416 1414 1415 1416 1417 1419 1422 1424 1427 1432 1434 1438 1442 1445 1447 1449 1451